Simultaneous Nadir Overpasses (SNOs) Predictions

Prediction of SNOs near equator between AQUA and NPP Satellite Orbit:

Table of predicted SNOs near equator for the next 14.0 days since TLE Epoch: 1/31/2014
Index Date (AQUA) Time (AQUA) AQUA Lat,Lon Date (NPP) Time (NPP) NPP Lat,Lon Distance(km) Time Diff (sec)
1 02/01/2014 06:21:04 -29.95, -76.04 02/01/2014 06:11:04 -30.22, -75.92 32.98 600
2 02/01/2014 07:08:12 21.38, 93.70 02/01/2014 06:59:22 21.38, 93.69 1.28 530
3 02/01/2014 07:51:06 2.07, -93.50 02/01/2014 07:43:23 2.08, -93.55 5.48 463
4 02/01/2014 08:39:21 -6.65, 75.10 02/01/2014 08:32:54 -6.70, 74.79 35.04 387
5 02/01/2014 09:27:29 11.13,-116.27 02/01/2014 09:22:17 11.25,-116.84 63.47 312
6 02/01/2014 10:15:43 -15.77, 52.38 02/01/2014 10:11:47 -15.91, 51.54 90.53 236
7 02/03/2014 22:37:33 -29.98, 39.84 02/03/2014 22:27:59 -30.01, 39.91 7.38 574
8 02/03/2014 23:22:07 12.13,-148.31 02/03/2014 23:13:43 12.13,-148.33 1.22 504
9 02/04/2014 00:07:06 3.78, 22.75 02/03/2014 23:59:52 3.82, 22.62 16.01 434
10 02/04/2014 00:55:20 -8.42,-168.63 02/04/2014 00:49:22 -8.50,-169.03 45.12 358
11 02/04/2014 01:43:28 12.90, 0.01 02/04/2014 01:38:45 13.05, -0.65 73.10 283
12 02/04/2014 02:31:42 -17.53, 168.66 02/04/2014 02:28:15 -17.71, 167.74 99.39 207
13 02/06/2014 14:53:07 -26.77, 156.55 02/06/2014 14:44:02 -26.77, 156.56 0.61 545
14 02/06/2014 15:35:39 1.52, -30.14 02/06/2014 15:27:41 1.52, -30.14 0.40 478
15 02/06/2014 16:23:03 5.63, 139.04 02/06/2014 16:16:19 5.68, 138.81 26.46 404
16 02/06/2014 17:11:18 -10.21, -52.35 02/06/2014 17:05:50 -10.29, -52.85 55.40 328
17 02/06/2014 17:59:25 14.75, 116.31 02/06/2014 17:55:12 14.90, 115.55 82.67 253
18 02/09/2014 06:21:03 29.95, 103.98 02/09/2014 06:11:13 29.95, 104.14 15.50 590
19 02/09/2014 07:07:25 -19.08, -85.71 02/09/2014 06:58:48 -19.08, -85.72 1.25 517
20 02/09/2014 07:50:51 -2.94, 86.70 02/09/2014 07:43:22 -2.97, 86.64 8.10 449
21 02/09/2014 08:38:59 7.43,-104.68 02/09/2014 08:32:45 7.52,-105.00 37.27 374
22 02/09/2014 09:27:13 -12.06, 63.95 02/09/2014 09:22:15 -12.20, 63.36 65.55 298
23 02/09/2014 10:15:21 16.55,-127.40 02/09/2014 10:11:38 16.74,-128.24 92.26 223
24 02/11/2014 22:37:29 29.94,-140.12 02/11/2014 22:28:11 29.94,-140.08 3.78 558
25 02/11/2014 23:20:47 -7.97, 32.65 02/11/2014 23:12:37 -7.97, 32.65 0.15 490
26 02/12/2014 00:06:47 -4.76,-157.01 02/11/2014 23:59:49 -4.81,-157.18 19.16 418
27 02/12/2014 00:54:54 9.30, 11.62 02/12/2014 00:49:11 9.42, 11.20 48.02 343
28 02/12/2014 01:43:09 -13.88,-179.75 02/12/2014 01:38:42 -14.03, 179.56 75.85 267
29 02/14/2014 14:04:25 -29.99, 168.14 02/14/2014 13:54:25 -30.21, 168.32 29.99 600
30 02/14/2014 14:52:13 23.85, -22.69 02/14/2014 14:43:25 23.85, -22.70 0.13 528
31 02/14/2014 15:34:26 2.07, 150.69 02/14/2014 15:26:44 2.08, 150.69 1.18 462
32 02/14/2014 16:22:40 -6.71, -40.69 02/14/2014 16:16:14 -6.76, -40.96 30.30 386
